• MPC Preparation (Info)

  • MPEC 2015-D35 : 2015 DT53

    The following Minor Planet Electronic Circular may be linked-to from your own Web pages, but must not otherwise be redistributed electronically.

    A form allowing access to any MPEC is at the bottom of this page.


    Read MPEC 2015-D34 Read MPEC 2015-D36


    M.P.E.C. 2015-D35                                Issued 2015 Feb. 20, 00:01 UT
    
         The Minor Planet Electronic Circulars contain information on unusual
             minor planets and routine data on comets.  They are published
       on behalf of Commission 20 of the International Astronomical Union by the
              Minor Planet Center, Smithsonian Astrophysical Observatory,
                              Cambridge, MA 02138, U.S.A.
    
                 Prepared using the Tamkin Foundation Computer Network
    
                                  MPC@CFA.HARVARD.EDU
                URL https://www.minorplanetcenter.net/    ISSN 1523-6714
    
                                       2015 DT53
    
    Observations:
         K15D53T* C2015 02 18.41834 11 01 15.92 +21 38 12.4          21.4 VqED035G96
         K15D53T  C2015 02 18.42698 11 01 17.60 +21 37 03.9          20.8 VqED035G96
         K15D53T  C2015 02 18.43312 11 01 18.80 +21 36 13.8          20.5 VqED035G96
         K15D53T  C2015 02 18.43926 11 01 19.93 +21 35 25.5          21.1 VqED035G96
         K15D53T  C2015 02 18.47114 11 01 26.27 +21 31 09.6          20.7 VqED035G96
         K15D53T  C2015 02 18.47175 11 01 26.40 +21 31 04.5          20.6 VqED035G96
         K15D53T  C2015 02 18.47237 11 01 26.55 +21 30 59.1          20.5 VqED035G96
         K15D53T  C2015 02 18.47298 11 01 26.67 +21 30 54.6          20.7 VqED035G96
         K15D53T  C2015 02 18.47360 11 01 26.80 +21 30 49.9          20.8 VqED035G96
         K15D53T KC2015 02 18.87599 11 03 08.61 +20 38 26.5          21.3 RqED035K51
         K15D53T KC2015 02 18.87910 11 03 09.27 +20 38 02.3          20.1 RqED035K51
         K15D53T KC2015 02 18.88222 11 03 09.89 +20 37 39.1          20.4 RqED035K51
         K15D53T  C2015 02 18.92716 11 03 18.29 +20 31 55.5          19.8 VMED035033
         K15D53T  C2015 02 18.93406 11 03 19.65 +20 31 01.1          19.8 VMED035033
         K15D53T  C2015 02 19.00529 11 03 33.07 +20 22 08.0          20.5 VMED035033
         K15D53T  C2015 02 19.00759 11 03 33.49 +20 21 50.9          20.6 VMED035033
         K15D53T  C2015 02 19.00988 11 03 33.92 +20 21 33.7          20.8 VMED035033
         K15D53T  C2015 02 19.10447 11 03 51.51 +20 09 40.9          20.5 VMED035033
         K15D53T  C2015 02 19.10676 11 03 51.96 +20 09 23.7          20.5 VMED035033
         K15D53T  C2015 02 19.10906 11 03 52.37 +20 09 06.8          20.9 VMED035033
         K15D53T  C2015 02 19.11136 11 03 52.84 +20 08 49.4          20.8 VMED035033
         K15D53T  C2015 02 19.38365 11 04 52.58 +19 35 59.6          20.9 VqED035G96
         K15D53T  C2015 02 19.38415 11 04 52.63 +19 35 56.5          20.9 VqED035G96
         K15D53T  C2015 02 19.38465 11 04 52.74 +19 35 52.5          20.9 VqED035G96
         K15D53T  C2015 02 19.38515 11 04 52.80 +19 35 48.9          21.9 VqED035G96
         K15D53T KC2015 02 19.96849 11 06 53.38 +18 26 18.9          20.8  qED035104
         K15D53T KC2015 02 19.97585 11 06 54.56 +18 25 26.5          21.0  qED035104
         K15D53T KC2015 02 19.97788 11 06 54.96 +18 25 12.6          21.3  qED035104
    
    Observer details:
    033 Karl Schwarzschild Observatory, Tautenburg.  Observers B. Stecklum,
        C. Hoegner.  Measurer B. Stecklum.  1.34-m f/4 Schmidt + CCD.
    104 San Marcello Pistoiese.  Observer P. Bacci.  Measurers P. Bacci, L. Tesi,
        G. Fagioli.  0.60-m f/4 reflector + CCD.
    G96 Mt. Lemmon Survey.  Observers R. E. Hill, E. J. Christensen.  Measurers
        E. J. Christensen, D. C. Fuls, A. R. Gibbs, A. D. Grauer, R. E. Hill,
        J. A. Johnson, R. A. Kowalski, S. M. Larson, R. G. Matheny, F. C. Shelly.
        1.5-m reflector + CCD.
    K51 Osservatorio del Celado, Castello Tesino.  Observers R. Furgoni, G. Favero.
        Measurer R. Furgoni.  0.80-m f/4 reflector + CCD.
    
    Orbital elements:
    2015 DT53                                                Earth MOID = 0.0465 AU
    Epoch 2014 Dec. 9.0 TT = JDT 2457000.5                  MPC
    M 345.15524              (2000.0)            P               Q
    n   0.33003954     Peri.  134.49088     -0.48584668     -0.87387075
    a   2.0737612      Node   344.55047     +0.78223988     -0.42584663
    e   0.5144689      Incl.    3.74600     +0.38994073     -0.23453050
    P   2.99           H   25.5           G   0.15           U   7
    Residuals in seconds of arc
    150218 G96  0.5+  0.4-    150218 K51  0.0   0.1-    150219 033  0.2+  0.4+
    150218 G96  0.4+  0.3+    150218 K51  0.0   0.0     150219 G96  0.1+  0.3-
    150218 G96  0.4+  0.6-    150218 033  0.1-  1.0+    150219 G96  0.4-  0.3+
    150218 G96  0.6-  0.3+    150218 033  0.3+  1.8-    150219 G96  0.0   0.1-
    150218 G96  0.4-  0.3+    150219 033  0.2+  0.4-    150219 G96  0.3-  0.0
    150218 G96  0.3-  0.1+    150219 033  0.1+  0.2-    150219 104  0.3-  1.2+
    150218 G96  0.1+  0.3-    150219 033  0.2+  0.2-    150219 104  0.2-  0.6-
    150218 G96  0.0   0.1+    150219 033  0.2-  0.1-    150219 104  0.9+  0.5-
    150218 G96  0.1+  0.4+    150219 033  0.1+  0.0
    150218 K51  0.6-  0.8+    150219 033  0.3-  0.4+
    
    Ephemeris:
    2015 DT53                a,e,i = 2.07, 0.51, 4                   q = 1.0069
    Date    TT    R. A. (2000) Decl.     Delta      r     Elong.  Phase     V
    2015 01 21    01 59 40.3 +50 53 14   0.08322 1.0072   103.8    71.6    22.6
    ...
    2015 02 05    07 52 13.1 +63 14 52   0.05034 1.0195   130.9    47.0    20.8
    ...
    2015 02 13    10 28 59.7 +36 29 24   0.05702 1.0392   155.0    23.7    20.5
    ...
    2015 02 19    11 03 31.4 +20 23 55   0.07364 1.0594   163.9    15.0    20.8
    2015 02 20    11 06 57.6 +18 23 35   0.07704 1.0632   164.8    14.1    20.9
    2015 02 21    11 09 59.4 +16 33 07   0.08058 1.0671   165.5    13.4    20.9
    ...
    2015 02 27    11 22 16.2 +08 15 27   0.1043  1.0927   169.1     9.9    21.4
    ...
    2015 03 07    11 30 05.4 +01 56 12   0.1410  1.1324   173.4     5.8    22.0
    ...
    2015 03 22    11 35 48.6 -03 19 27   0.2249  1.2196   172.6     6.1    23.2
    
    A. U. Tomatic                (C) Copyright 2015 MPC           M.P.E.C. 2015-D35
    

    Read MPEC 2015-D34 Read MPEC 2015-D36


    MPEC number:

    Enter an MPEC number in one of the following forms:

    • 1997-B01 (the full form)
    • J97B01 (the packed version of the full form)
    • B01 (the abbreviated form)